Location: Roanoke
(37.2710°N, 79.9420°W)
Time: 20:59:46
(UTC-05:00)

Courier 1B Rocket - Visible Passes

Search period start: 26 February 2021 00:00
Search period end: 08 March 2021 00:00
Orbit: 920 x 1202 km, 28.3° (Epoch: 26 February)

Date Brightness Start Highest point End Pass type
(mag) Time Alt. Az. Time Alt. Az. Time Alt. Az.
26 Feb 6.1 19:56:47 10° WSW 20:04:01 41° S 20:06:55 31° SE visible
26 Feb 7.3 21:50:53 10° WSW 21:53:17 18° WSW 21:53:17 18° WSW visible
27 Feb 6.2 18:55:35 10° WSW 19:02:52 43° S 19:09:43 12° ESE visible
27 Feb 6.4 20:49:17 10° WSW 20:56:03 32° SSW 20:56:05 32° SSW visible
28 Feb 6.3 19:47:54 10° WSW 19:54:58 38° SSW 19:58:55 23° SE visible
28 Feb 7.3 21:42:29 10° WSW 21:45:17 17° SW 21:45:17 17° SW visible
01 Mar 6.3 18:46:40 10° WSW 18:53:49 41° S 19:01:02 10° ESE visible
01 Mar 6.7 20:40:40 10° WSW 20:46:56 27° SSW 20:48:09 26° S visible
02 Mar 6.6 19:39:09 10° WSW 19:45:52 32° SSW 19:51:02 16° SE visible
02 Mar 7.4 21:34:39 10° WSW 21:37:25 14° SW 21:37:25 14° SW visible
03 Mar 6.5 18:37:51 10° WSW 18:44:46 37° SSW 18:51:49 10° SE visible
03 Mar 7.0 20:32:19 10° WSW 20:37:46 21° SSW 20:40:21 18° S visible
04 Mar 6.9 19:30:34 10° WSW 19:36:45 26° SSW 19:42:59 10° SSE visible
05 Mar 6.8 18:29:09 10° WSW 18:35:42 32° SSW 18:42:24 10° SE visible
05 Mar 7.5 20:24:34 10° WSW 20:28:35 15° SSW 20:32:35 10° S visible
06 Mar 7.3 19:22:19 10° WSW 19:27:36 20° SSW 19:32:59 10° SSE visible
